Palma de Mallorca, Spain

5:45 PM CET on February 19, 2017 (GMT +0100)
Palma De Mallorca

Weather History for LEPA - November, 2012

Change the Weather History Date:

Friday, November 23, 2012

  Actual Average Record
Temperature  
Mean Temperature 56 °F -  
Max Temperature 66 °F 60 °F 81 °F (2014)
Min Temperature 46 °F 42 °F 33 °F (1999)
Degree Days  
Heating Degree Days 9    
Growing Degree Days 6 (Base 50)    
Moisture  
Dew Point 53 °F    
Average Humidity 89    
Maximum Humidity 100    
Minimum Humidity 59    
Precipitation  
Precipitation 0.00 in 0.06 in - ()
Sea Level Pressure  
Sea Level Pressure 30.18 in    
Wind  
Wind Speed 1 mph ()    
Max Wind Speed 7 mph    
Max Gust Speed -    
Visibility 6.7 miles    
Events Fog    
Averages and records for this station are not official NWS values.
T = Trace of Precipitation, MM = Missing Value Source: Averaged Metar Reports

Daily Weather History Graph

Daily Weather History Graph

Search for Another Location

Airport or City:

Trip Planner

Search our weather history database for the weather conditions in past years. The results will help you decide how hot, cold, wet, or windy it might be!

Date:

Astronomy

Nov. 23, 2012 Rise Set
Actual Time 7:42 AM CET 5:28 PM CET
Civil Twilight 7:13 AM CET 5:57 PM CET
Nautical Twilight 6:40 AM CET 6:30 PM CET
Astronomical Twilight 6:07 AM CET 7:02 PM CET
Moon 2:34 PM CET (11/23) 2:47 AM CET (11/23)
Length of Visible Light 10h 44m
Length of Day
9h 46m
Waxing Gibbous, 77% of the Moon is Illuminated
Nov 23
Waxing Gibbous
Nov 28
Full
Dec 6
Last Quarter
Dec 13
New
Dec 20
First Quarter

Hourly Weather History & Observations

Time (CET) Temp. Dew Point Humidity Pressure Visibility Wind Dir Wind Speed Gust Speed Precip Events Conditions
12:00 AM 53.6 °F 51.8 °F 94% 30.18 in 6.2 mi Calm Calm - N/A   Partly Cloudy
12:30 AM 51.8 °F 50.0 °F 94% 30.18 in 6.2 mi Calm Calm - N/A   Partly Cloudy
1:00 AM 50 °F 48 °F 91% 30.19 in 9 mi NNW 3.5 mph - -   Scattered Clouds
1:30 AM 51.8 °F 50.0 °F 94% 30.18 in 6.2 mi North 1.2 mph - N/A   Partly Cloudy
2:30 AM 50.0 °F 50.0 °F 100% 30.18 in 6.2 mi Calm Calm - N/A   Partly Cloudy
3:00 AM 50.0 °F 50.0 °F 100% 30.18 in 6.2 mi Variable 1.2 mph - N/A   Partly Cloudy
3:30 AM 50.0 °F 48.2 °F 94% 30.18 in 6.2 mi Variable 1.2 mph - N/A   Partly Cloudy
4:00 AM 48.2 °F 48.2 °F 100% 30.18 in 6.2 mi Calm Calm - N/A   Partly Cloudy
4:30 AM 48.2 °F 48.2 °F 100% 30.18 in 6.2 mi NE 1.2 mph - N/A   Partly Cloudy
5:00 AM 46.4 °F 46.4 °F 100% 30.18 in 6.2 mi ENE 1.2 mph - N/A   Partly Cloudy
5:30 AM 48.2 °F 48.2 °F 100% 30.18 in 6.2 mi North 1.2 mph - N/A   Partly Cloudy
6:00 AM 48.2 °F 48.2 °F 100% 30.18 in 6.2 mi Calm Calm - N/A   Partly Cloudy
6:30 AM 48.2 °F 46.4 °F 93% 30.18 in 6.2 mi Variable 1.2 mph - N/A   Partly Cloudy
7:00 AM 47 °F 45 °F 90% 30.19 in 7 mi Calm Calm - -   Scattered Clouds
7:00 AM 48.2 °F 46.4 °F 93% 30.18 in 6.2 mi Calm Calm - N/A   Partly Cloudy
7:30 AM 48.2 °F 48.2 °F 100% 30.18 in 6.2 mi Calm Calm - N/A   Partly Cloudy
8:00 AM 46.4 °F 46.4 °F 100% 30.18 in 6.2 mi Calm Calm - N/A Fog Shallow Fog
8:30 AM 48.2 °F 48.2 °F 100% 30.18 in 6.2 mi Variable 1.2 mph - N/A Fog Shallow Fog
9:00 AM 51.8 °F 50.0 °F 94% 30.21 in 6.2 mi NE 1.2 mph - N/A Fog Shallow Fog
9:30 AM 53.6 °F 53.6 °F 100% 30.21 in 6.2 mi Calm Calm - N/A   Partly Cloudy
10:00 AM 59.0 °F 57.2 °F 94% 30.21 in 6.2 mi Calm Calm - N/A   Partly Cloudy
10:30 AM 62.6 °F 59.0 °F 88% 30.21 in 6.2 mi Calm Calm - N/A   Partly Cloudy
11:00 AM 64.4 °F 57.2 °F 77% 30.21 in 6.2 mi Calm Calm - N/A   Partly Cloudy
11:30 AM 64.4 °F 57.2 °F 77% 30.21 in 6.2 mi Variable 1.2 mph - N/A   Partly Cloudy
12:00 PM 66.2 °F 59.0 °F 78% 30.21 in 6.2 mi Variable 2.3 mph - N/A   Partly Cloudy
12:30 PM 66.2 °F 57.2 °F 73% 30.21 in 6.2 mi SW 5.8 mph - N/A   Partly Cloudy
1:00 PM 66 °F 55 °F 59% 30.21 in 16 mi SSW 5.8 mph - -   Partly Cloudy
1:00 PM 66.2 °F 59.0 °F 78% 30.21 in 6.2 mi WSW 5.8 mph - N/A   Partly Cloudy
1:30 PM 66.2 °F 59.0 °F 78% 30.18 in 6.2 mi WSW 6.9 mph - N/A   Scattered Clouds
2:00 PM 66.2 °F 59.0 °F 78% 30.18 in 6.2 mi SW 5.8 mph - N/A   Scattered Clouds
2:30 PM 66.2 °F 59.0 °F 78% 30.18 in 6.2 mi SW 5.8 mph - N/A   Scattered Clouds
3:00 PM 66.2 °F 57.2 °F 73% 30.15 in 6.2 mi SSW 5.8 mph - N/A   Partly Cloudy
3:30 PM 66.2 °F 57.2 °F 73% 30.15 in 6.2 mi SW 6.9 mph - N/A   Partly Cloudy
4:00 PM 64.4 °F 57.2 °F 77% 30.15 in 6.2 mi SW 6.9 mph - N/A   Partly Cloudy
4:30 PM 64.4 °F 57.2 °F 77% 30.18 in 6.2 mi SW 5.8 mph - N/A   Partly Cloudy
5:00 PM 64.4 °F 57.2 °F 77% 30.18 in 6.2 mi Variable 2.3 mph - N/A   Partly Cloudy
5:30 PM 62.6 °F 57.2 °F 82% 30.15 in 6.2 mi SSW 1.2 mph - N/A   Partly Cloudy
6:00 PM 62.6 °F 55.4 °F 77% 30.15 in 6.2 mi SSE 2.3 mph - N/A   Partly Cloudy
6:30 PM 59.0 °F 55.4 °F 88% 30.15 in 6.2 mi SE 1.2 mph - N/A   Partly Cloudy
7:00 PM 57 °F 52 °F 77% 30.18 in 16 mi Calm Calm - -   Scattered Clouds
7:00 PM 59.0 °F 55.4 °F 88% 30.18 in 6.2 mi ENE 1.2 mph - N/A   Partly Cloudy
7:30 PM 57.2 °F 55.4 °F 94% 30.18 in 6.2 mi NE 1.2 mph - N/A   Partly Cloudy
8:00 PM 55.4 °F 53.6 °F 94% 30.18 in 6.2 mi ENE 2.3 mph - N/A   Partly Cloudy
8:30 PM 55.4 °F 53.6 °F 94% 30.18 in 6.2 mi ENE 1.2 mph - N/A   Partly Cloudy
9:00 PM 53.6 °F 53.6 °F 100% 30.18 in 6.2 mi Variable 1.2 mph - N/A   Partly Cloudy
9:30 PM 53.6 °F 51.8 °F 94% 30.18 in 6.2 mi NE 2.3 mph - N/A   Partly Cloudy
10:00 PM 53.6 °F 51.8 °F 94% 30.18 in 6.2 mi Variable 1.2 mph - N/A   Partly Cloudy
10:30 PM 53.6 °F 51.8 °F 94% 30.18 in 6.2 mi Variable 1.2 mph - N/A   Partly Cloudy
11:00 PM 51.8 °F 51.8 °F 100% 30.18 in 6.2 mi ENE 2.3 mph - N/A   Partly Cloudy
11:30 PM 51.8 °F 51.8 °F 100% 30.18 in 6.2 mi Calm Calm - N/A   Partly Cloudy